05-07-2022, 00:00:04,    273,    0.0,   10.2,   0.00,   0.00, 1019.6,   71.6, -999.0
05-07-2022, 00:00:14,    273,    0.0,   10.2,   0.00,   0.00, 1019.6,   71.7, -999.0
05-07-2022, 00:00:24,    273,    0.0,   10.2,   0.00,   0.00, 1019.6,   71.6, -999.0
05-07-2022, 00:00:34,    273,    0.0,   10.2,   0.00,   0.00, 1019.6,   71.6, -999.0
05-07-2022, 00:00:44,    273,    0.0,   10.2,   0.00,   0.00, 1019.6,   71.7, -999.0
05-07-2022, 00:00:54,    273,    0.0,   10.2,   0.00,   0.00, 1019.6,   71.7, -999.0
05-07-2022, 00:01:04,    273,    0.0,   10.3,   0.00,   0.00, 1019.6,   71.8, -999.0
05-07-2022, 00:01:14,    273,    0.0,   10.3,   0.00,   0.00, 1019.6,   71.7, -999.0
05-07-2022, 00:01:24,    273,    0.0,   10.3,   0.00,   0.00, 1019.6,   71.7, -999.0
05-07-2022, 00:01:34,    273,    0.0,   10.2,   0.00,   0.00, 1019.6,   71.6, -999.0
05-07-2022, 00:01:44,    273,    0.0,   10.2,   0.00,   0.00, 1019.6,   71.6, -999.0
05-07-2022, 00:01:54,    273,    0.0,   10.2,   0.00,   0.00, 1019.6,   71.6, -999.0
05-07-2022, 00:02:04,    273,    0.0,   10.2,   0.00,   0.00, 1019.6,   71.7, -999.0
05-07-2022, 00:02:14,    272,    0.0,   10.2,   0.00,   0.00, 1019.6,   71.7, -999.0
05-07-2022, 00:02:23,    273,    0.0,   10.2,   0.00,   0.00, 1019.6,   71.6, -999.0
05-07-2022, 00:02:34,    272,    0.0,   10.2,   0.00,   0.00, 1019.6,   71.7, -999.0
05-07-2022, 00:02:44,    273,    0.0,   10.2,   0.00,   0.00, 1019.6,   71.7, -999.0
05-07-2022, 00:02:53,    273,    0.0,   10.2,   0.00,   0.00, 1019.6,   71.7, -999.0
05-07-2022, 00:03:04,    273,    0.0,   10.2,   0.00,   0.00, 1019.6,   71.7, -999.0
05-07-2022, 00:03:13,    272,    0.0,   10.2,   0.00,   0.00, 1019.6,   71.8, -999.0
05-07-2022, 00:03:23,    273,    0.0,   10.2,   0.00,   0.00, 1019.6,   71.7, -999.0
05-07-2022, 00:03:33,    273,    0.0,   10.2,   0.00,   0.00, 1019.6,   71.7, -999.0
05-07-2022, 00:03:43,    272,    0.0,   10.1,   0.00,   0.00, 1019.6,   71.7, -999.0
05-07-2022, 00:03:53,    273,    0.0,   10.2,   0.00,   0.00, 1019.6,   71.7, -999.0
05-07-2022, 00:04:03,    273,    0.0,   10.2,   0.00,   0.00, 1019.6,   71.8, -999.0
05-07-2022, 00:04:13,    273,    0.0,   10.2,   0.00,   0.00, 1019.6,   71.7, -999.0
05-07-2022, 00:04:23,    272,    0.0,   10.3,   0.00,   0.00, 1019.6,   71.7, -999.0
05-07-2022, 00:04:33,    272,    0.0,   10.2,   0.00,   0.00, 1019.6,   71.7, -999.0
05-07-2022, 00:04:43,    272,    0.0,   10.2,   0.00,   0.00, 1019.6,   71.8, -999.0
05-07-2022, 00:04:53,    273,    0.0,   10.3,   0.00,   0.00, 1019.6,   71.8, -999.0
05-07-2022, 00:05:03,    273,    0.0,   10.3,   0.00,   0.00, 1019.6,   71.8, -999.0
05-07-2022, 00:05:13,    273,    0.0,   10.3,   0.00,   0.00, 1019.6,   71.8, -999.0
05-07-2022, 00:05:23,    273,    0.0,   10.3,   0.00,   0.00, 1019.6,   71.7, -999.0
05-07-2022, 00:05:33,    273,    0.0,   10.2,   0.00,   0.00, 1019.6,   71.7, -999.0
05-07-2022, 00:05:43,    273,    0.0,   10.3,   0.00,   0.00, 1019.6,   71.8, -999.0
05-07-2022, 00:05:52,    272,    0.0,   10.3,   0.00,   0.00, 1019.6,   71.8, -999.0
05-07-2022, 00:06:02,    273,    0.0,   10.3,   0.00,   0.00, 1019.6,   71.9, -999.0
05-07-2022, 00:06:13,    273,    0.0,   10.3,   0.00,   0.00, 1019.6,   71.8, -999.0
05-07-2022, 00:06:22,    273,    0.0,   10.3,   0.00,   0.00, 1019.6,   71.9, -999.0
05-07-2022, 00:06:32,    273,    0.0,   10.2,   0.00,   0.00, 1019.6,   71.8, -999.0
05-07-2022, 00:06:42,    273,    0.0,   10.1,   0.00,   0.00, 1019.6,   71.9, -999.0
05-07-2022, 00:06:52,    273,    0.0,   10.2,   0.00,   0.00, 1019.6,   71.9, -999.0
05-07-2022, 00:07:02,    272,    0.0,   10.2,   0.00,   0.00, 1019.6,   71.8, -999.0
05-07-2022, 00:07:12,    273,    0.0,   10.2,   0.00,   0.00, 1019.6,   71.8, -999.0
05-07-2022, 00:07:22,    272,    0.0,   10.2,   0.00,   0.00, 1019.6,   71.8, -999.0
05-07-2022, 00:07:32,    272,    0.0,   10.3,   0.00,   0.00, 1019.6,   71.8, -999.0
05-07-2022, 00:07:42,    273,    0.0,   10.2,   0.00,   0.00, 1019.6,   71.7, -999.0
05-07-2022, 00:07:52,    273,    0.0,   10.2,   0.00,   0.00, 1019.6,   71.8, -999.0
05-07-2022, 00:08:02,    273,    0.0,   10.1,   0.00,   0.00, 1019.6,   71.8, -999.0
05-07-2022, 00:08:12,    273,    0.0,   10.2,   0.00,   0.00, 1019.6,   71.7, -999.0
05-07-2022, 00:08:22,    272,    0.0,   10.2,   0.00,   0.00, 1019.6,   71.8, -999.0
05-07-2022, 00:08:31,    272,    0.0,   10.2,   0.00,   0.00, 1019.6,   72.0, -999.0
05-07-2022, 00:08:42,    272,    0.0,   10.1,   0.00,   0.00, 1019.6,   72.0, -999.0
05-07-2022, 00:08:52,    273,    0.0,   10.1,   0.00,   0.00, 1019.6,   72.0, -999.0
05-07-2022, 00:09:01,    273,    0.0,   10.2,   0.00,   0.00, 1019.6,   72.0, -999.0
05-07-2022, 00:09:11,    273,    0.0,   10.2,   0.00,   0.00, 1019.6,   71.9, -999.0
05-07-2022, 00:09:22,    273,    0.0,   10.1,   0.00,   0.00, 1019.6,   72.0, -999.0
05-07-2022, 00:09:31,    272,    0.0,   10.2,   0.00,   0.00, 1019.6,   72.1, -999.0
05-07-2022, 00:09:41,    273,    0.0,   10.1,   0.00,   0.00, 1019.6,   72.0, -999.0
05-07-2022, 00:09:52,    273,    0.0,   10.1,   0.00,   0.00, 1019.5,   72.0, -999.0
05-07-2022, 00:10:01,    272,    0.0,   10.1,   0.00,   0.00, 1019.5,   71.9, -999.0
05-07-2022, 00:10:11,    273,    0.0,   10.1,   0.00,   0.00, 1019.5,   72.0, -999.0
05-07-2022, 00:10:21,    273,    0.0,   10.1,   0.00,   0.00, 1019.6,   72.1, -999.0
05-07-2022, 00:10:31,    272,    0.0,   10.1,   0.00,   0.00, 1019.6,   72.1, -999.0
05-07-2022, 00:10:41,    273,    0.0,   10.1,   0.00,   0.00, 1019.6,   72.1, -999.0
05-07-2022, 00:10:51,    273,    0.0,   10.1,   0.00,   0.00, 1019.6,   72.3, -999.0
05-07-2022, 00:11:01,    273,    0.0,   10.0,   0.00,   0.00, 1019.6,   72.3, -999.0
05-07-2022, 00:11:11,    273,    0.0,   10.1,   0.00,   0.00, 1019.6,   72.3, -999.0
05-07-2022, 00:11:21,    273,    0.0,   10.0,   0.00,   0.00, 1019.6,   72.5, -999.0
05-07-2022, 00:11:31,    273,    0.0,   10.1,   0.00,   0.00, 1019.6,   72.4, -999.0
05-07-2022, 00:11:40,    273,    0.0,   10.1,   0.00,   0.00, 1019.6,   72.4, -999.0
05-07-2022, 00:11:51,    272,    0.0,   10.1,   0.00,   0.00, 1019.6,   72.3, -999.0
05-07-2022, 00:12:01,    272,    0.0,   10.0,   0.00,   0.00, 1019.6,   72.4, -999.0
05-07-2022, 00:12:10,    273,    0.0,   10.1,   0.00,   0.00, 1019.6,   72.4, -999.0
05-07-2022, 00:12:21,    273,    0.0,   10.0,   0.00,   0.00, 1019.6,   72.4, -999.0
05-07-2022, 00:12:31,    273,    0.0,   10.0,   0.00,   0.00, 1019.6,   72.5, -999.0
05-07-2022, 00:12:40,    273,    0.0,   10.0,   0.00,   0.00, 1019.6,   72.5, -999.0
05-07-2022, 00:12:50,    273,    0.0,   10.0,   0.00,   0.00, 1019.6,   72.5, -999.0
05-07-2022, 00:13:00,    273,    0.0,   10.0,   0.00,   0.00, 1019.6,   72.5, -999.0
05-07-2022, 00:13:10,    273,    0.0,    9.9,   0.00,   0.00, 1019.6,   72.6, -999.0
05-07-2022, 00:13:20,    273,    0.0,   10.0,   0.00,   0.00, 1019.6,   72.5, -999.0
05-07-2022, 00:13:30,    273,    0.0,   10.0,   0.00,   0.00, 1019.6,   72.6, -999.0
05-07-2022, 00:13:40,    273,    0.0,   10.0,   0.00,   0.00, 1019.5,   72.7, -999.0
05-07-2022, 00:13:50,    273,    0.0,   10.0,   0.00,   0.00, 1019.6,   72.6, -999.0
05-07-2022, 00:14:00,    273,    0.0,   10.0,   0.00,   0.00, 1019.6,   72.7, -999.0
05-07-2022, 00:14:10,    273,    0.0,    9.9,   0.00,   0.00, 1019.6,   72.6, -999.0
05-07-2022, 00:14:20,    273,    0.0,    9.9,   0.00,   0.00, 1019.6,   72.7, -999.0
05-07-2022, 00:14:30,    272,    0.0,    9.9,   0.00,   0.00, 1019.6,   72.6, -999.0
05-07-2022, 00:14:40,    273,    0.0,   10.0,   0.00,   0.00, 1019.6,   72.7, -999.0
05-07-2022, 00:14:50,    272,    0.0,    9.9,   0.00,   0.00, 1019.6,   72.8, -999.0
05-07-2022, 00:15:00,    272,    0.0,   10.0,   0.00,   0.00, 1019.6,   72.9, -999.0
05-07-2022, 00:15:10,    273,    0.0,   10.0,   0.00,   0.00, 1019.6,   72.9, -999.0
05-07-2022, 00:15:19,    273,    0.0,   10.0,   0.00,   0.00, 1019.6,   72.9, -999.0
05-07-2022, 00:15:30,    273,    0.0,   10.0,   0.00,   0.00, 1019.6,   73.0, -999.0
05-07-2022, 00:15:40,    272,    0.0,    9.9,   0.00,   0.00, 1019.6,   73.0, -999.0
05-07-2022, 00:15:49,    273,    0.0,    9.9,   0.00,   0.00, 1019.6,   72.9, -999.0
05-07-2022, 00:15:59,    272,    0.0,   10.0,   0.00,   0.00, 1019.6,   72.9, -999.0
05-07-2022, 00:16:09,    272,    0.0,    9.9,   0.00,   0.00, 1019.6,   72.9, -999.0
05-07-2022, 00:16:19,    272,    0.0,    9.9,   0.00,   0.00, 1019.6,   72.9, -999.0
05-07-2022, 00:16:29,    273,    0.0,   10.0,   0.00,   0.00, 1019.6,   73.0, -999.0
05-07-2022, 00:16:39,    273,    0.0,    9.9,   0.00,   0.00, 1019.6,   73.1, -999.0
05-07-2022, 00:16:49,    272,    0.0,   10.0,   0.00,   0.00, 1019.6,   73.1, -999.0
05-07-2022, 00:16:59,    273,    0.0,   10.0,   0.00,   0.00, 1019.6,   73.0, -999.0
05-07-2022, 00:17:09,    273,    0.0,    9.9,   0.00,   0.00, 1019.6,   73.1, -999.0
05-07-2022, 00:17:19,    272,    0.0,   10.0,   0.00,   0.00, 1019.6,   73.1, -999.0
05-07-2022, 00:17:29,    273,    0.0,    9.9,   0.00,   0.00, 1019.6,   73.0, -999.0
05-07-2022, 00:17:39,    273,    0.0,    9.9,   0.00,   0.00, 1019.6,   73.1, -999.0
05-07-2022, 00:17:49,    273,    0.0,    9.9,   0.00,   0.00, 1019.6,   73.0, -999.0
05-07-2022, 00:17:59,    273,    0.0,    9.9,   0.00,   0.00, 1019.6,   73.1, -999.0
05-07-2022, 00:18:09,    273,    0.0,    9.9,   0.00,   0.00, 1019.6,   73.1, -999.0
05-07-2022, 00:18:19,    272,    0.0,    9.9,   0.00,   0.00, 1019.6,   73.1, -999.0
05-07-2022, 00:18:28,    273,    0.0,    9.9,   0.00,   0.00, 1019.6,   73.1, -999.0
05-07-2022, 00:18:39,    273,    0.0,    9.9,   0.00,   0.00, 1019.6,   73.2, -999.0
05-07-2022, 00:18:49,    273,    0.0,    9.9,   0.00,   0.00, 1019.6,   73.3, -999.0
05-07-2022, 00:18:58,    272,    0.0,    9.9,   0.00,   0.00, 1019.6,   73.3, -999.0
05-07-2022, 00:19:08,    273,    0.0,    9.9,   0.00,   0.00, 1019.6,   73.2, -999.0
05-07-2022, 00:19:18,    272,    0.0,    9.9,   0.00,   0.00, 1019.6,   73.2, -999.0
05-07-2022, 00:19:28,    273,    0.0,    9.9,   0.00,   0.00, 1019.6,   73.3, -999.0
05-07-2022, 00:19:38,    273,    0.0,    9.9,   0.00,   0.00, 1019.6,   73.3, -999.0
05-07-2022, 00:19:48,    273,    0.0,    9.9,   0.00,   0.00, 1019.6,   73.2, -999.0
05-07-2022, 00:19:58,    273,    0.0,    9.9,   0.00,   0.00, 1019.6,   73.3, -999.0
05-07-2022, 00:20:08,    273,    0.0,    9.9,   0.00,   0.00, 1019.6,   73.5, -999.0
05-07-2022, 00:20:18,    273,    0.0,    9.9,   0.00,   0.00, 1019.6,   73.4, -999.0
05-07-2022, 00:20:28,    273,    0.0,    9.9,   0.00,   0.00, 1019.6,   73.4, -999.0
05-07-2022, 00:20:38,    273,    0.0,    9.9,   0.00,   0.00, 1019.6,   73.4, -999.0
05-07-2022, 00:20:48,    273,    0.0,    9.9,   0.00,   0.00, 1019.6,   73.5, -999.0
05-07-2022, 00:20:58,    273,    0.0,    9.9,   0.00,   0.00, 1019.6,   73.5, -999.0
05-07-2022, 00:21:08,    273,    0.0,    9.9,   0.00,   0.00, 1019.6,   73.5, -999.0
05-07-2022, 00:21:18,    273,    0.0,    9.9,   0.00,   0.00, 1019.6,   73.5, -999.0
05-07-2022, 00:21:28,    272,    0.0,    9.9,   0.00,   0.00, 1019.6,   73.5, -999.0
05-07-2022, 00:21:37,    273,    0.0,    9.9,   0.00,   0.00, 1019.6,   73.6, -999.0
05-07-2022, 00:21:48,    273,    0.0,    9.9,   0.00,   0.00, 1019.6,   73.6, -999.0
05-07-2022, 00:21:57,    272,    0.0,    9.9,   0.00,   0.00, 1019.6,   73.6, -999.0
05-07-2022, 00:22:07,    273,    0.0,    9.9,   0.00,   0.00, 1019.6,   73.6, -999.0
05-07-2022, 00:22:18,    274,    0.0,    9.9,   0.00,   0.00, 1019.6,   73.6, -999.0
05-07-2022, 00:22:27,    277,    0.0,    9.9,   0.00,   0.00, 1019.6,   73.5, -999.0
05-07-2022, 00:22:37,    273,    0.0,    9.9,   0.00,   0.00, 1019.6,   73.7, -999.0
05-07-2022, 00:22:47,    273,    0.0,    9.8,   0.00,   0.00, 1019.6,   73.6, -999.0
05-07-2022, 00:22:57,    272,    0.0,    9.9,   0.00,   0.00, 1019.6,   73.7, -999.0
05-07-2022, 00:23:07,    273,    0.0,    9.9,   0.00,   0.00, 1019.6,   73.7, -999.0
05-07-2022, 00:23:17,    272,    0.0,    9.9,   0.00,   0.00, 1019.6,   73.7, -999.0
05-07-2022, 00:23:27,    273,    0.0,    9.9,   0.00,   0.00, 1019.6,   73.7, -999.0
05-07-2022, 00:23:37,    273,    0.0,    9.9,   0.00,   0.00, 1019.6,   73.7, -999.0
05-07-2022, 00:23:47,    272,    0.0,    9.9,   0.00,   0.00, 1019.6,   73.7, -999.0
05-07-2022, 00:23:57,    273,    0.0,    9.9,   0.00,   0.00, 1019.6,   73.7, -999.0
05-07-2022, 00:24:07,    272,    0.0,    9.9,   0.00,   0.00, 1019.6,   73.7, -999.0
05-07-2022, 00:24:17,    273,    0.0,    9.8,   0.00,   0.00, 1019.6,   73.7, -999.0
05-07-2022, 00:24:27,    272,    0.0,    9.8,   0.00,   0.00, 1019.6,   73.6, -999.0
05-07-2022, 00:24:37,    272,    0.0,    9.9,   0.00,   0.00, 1019.6,   73.8, -999.0
05-07-2022, 00:24:47,    273,    0.0,    9.9,   0.00,   0.00, 1019.6,   73.7, -999.0
05-07-2022, 00:24:57,    273,    0.0,    9.9,   0.00,   0.00, 1019.6,   73.6, -999.0
05-07-2022, 00:25:06,    272,    0.0,    9.9,   0.00,   0.00, 1019.6,   73.7, -999.0
05-07-2022, 00:25:16,    273,    0.0,    9.9,   0.00,   0.00, 1019.6,   73.7, -999.0
05-07-2022, 00:25:27,    272,    0.0,    9.9,   0.00,   0.00, 1019.6,   73.7, -999.0
05-07-2022, 00:25:36,    272,    0.0,    9.9,   0.00,   0.00, 1019.6,   73.7, -999.0
05-07-2022, 00:25:46,    273,    0.0,    9.8,   0.00,   0.00, 1019.6,   73.6, -999.0
05-07-2022, 00:25:56,    273,    0.0,    9.8,   0.00,   0.00, 1019.6,   73.7, -999.0
05-07-2022, 00:26:06,    273,    0.0,    9.8,   0.00,   0.00, 1019.6,   73.6, -999.0
05-07-2022, 00:26:16,    273,    0.0,    9.8,   0.00,   0.00, 1019.6,   73.7, -999.0
05-07-2022, 00:26:26,    273,    0.0,    9.8,   0.00,   0.00, 1019.6,   73.7, -999.0
05-07-2022, 00:26:36,    273,    0.0,    9.9,   0.00,   0.00, 1019.6,   73.7, -999.0
05-07-2022, 00:26:46,    273,    0.0,    9.8,   0.00,   0.00, 1019.6,   73.7, -999.0
05-07-2022, 00:26:56,    272,    0.0,    9.8,   0.00,   0.00, 1019.6,   73.7, -999.0
05-07-2022, 00:27:06,    273,    0.0,    9.8,   0.00,   0.00, 1019.6,   73.7, -999.0
05-07-2022, 00:27:16,    274,    0.0,    9.7,   0.00,   0.00, 1019.6,   73.7, -999.0
05-07-2022, 00:27:26,    273,    0.0,    9.8,   0.00,   0.00, 1019.6,   73.8, -999.0
05-07-2022, 00:27:36,    272,    0.0,    9.8,   0.00,   0.00, 1019.6,   73.9, -999.0
05-07-2022, 00:27:46,    273,    0.0,    9.8,   0.00,   0.00, 1019.6,   73.8, -999.0
05-07-2022, 00:27:56,    273,    0.0,    9.8,   0.00,   0.00, 1019.6,   73.8, -999.0
05-07-2022, 00:28:06,    273,    0.0,    9.8,   0.00,   0.00, 1019.6,   73.9, -999.0
05-07-2022, 00:28:15,    267,    0.0,    9.8,   0.00,   0.00, 1019.6,   73.9, -999.0
05-07-2022, 00:28:25,    273,    0.0,    9.8,   0.00,   0.00, 1019.6,   74.0, -999.0
05-07-2022, 00:28:36,    273,    0.0,    9.8,   0.00,   0.00, 1019.6,   74.0, -999.0
05-07-2022, 00:28:45,    273,    0.0,    9.7,   0.00,   0.00, 1019.6,   73.9, -999.0
05-07-2022, 00:28:55,    273,    0.0,    9.7,   0.00,   0.00, 1019.6,   74.0, -999.0
05-07-2022, 00:29:05,    273,    0.0,    9.7,   0.00,   0.00, 1019.6,   74.0, -999.0
05-07-2022, 00:29:15,    273,    0.0,    9.8,   0.00,   0.00, 1019.6,   73.9, -999.0
05-07-2022, 00:29:25,    272,    0.0,    9.8,   0.00,   0.00, 1019.6,   73.9, -999.0
05-07-2022, 00:29:35,    272,    0.0,    9.8,   0.00,   0.00, 1019.6,   74.0, -999.0
05-07-2022, 00:29:45,    272,    0.0,    9.8,   0.00,   0.00, 1019.6,   74.0, -999.0
05-07-2022, 00:29:55,    273,    0.0,    9.8,   0.00,   0.00, 1019.6,   74.0, -999.0
05-07-2022, 00:30:05,    273,    0.0,    9.8,   0.00,   0.00, 1019.6,   73.9, -999.0
05-07-2022, 00:30:15,    273,    0.0,    9.8,   0.00,   0.00, 1019.6,   74.1, -999.0
05-07-2022, 00:30:25,    273,    0.0,    9.8,   0.00,   0.00, 1019.6,   74.0, -999.0
05-07-2022, 00:30:35,    273,    0.0,    9.8,   0.00,   0.00, 1019.6,   74.1, -999.0
05-07-2022, 00:30:45,    273,    0.0,    9.7,   0.00,   0.00, 1019.6,   74.0, -999.0
05-07-2022, 00:30:54,    273,    0.0,    9.8,   0.00,   0.00, 1019.6,   74.0, -999.0
05-07-2022, 00:31:05,    273,    0.0,    9.7,   0.00,   0.00, 1019.6,   74.0, -999.0
05-07-2022, 00:31:15,    273,    0.0,    9.7,   0.00,   0.00, 1019.6,   74.0, -999.0
05-07-2022, 00:31:24,    273,    0.0,    9.7,   0.00,   0.00, 1019.6,   74.0, -999.0
05-07-2022, 00:31:35,    273,    0.0,    9.7,   0.00,   0.00, 1019.6,   74.0, -999.0
05-07-2022, 00:31:45,    272,    0.0,    9.8,   0.00,   0.00, 1019.6,   74.0, -999.0
05-07-2022, 00:31:54,    273,    0.0,    9.7,   0.00,   0.00, 1019.6,   74.0, -999.0
05-07-2022, 00:32:04,    272,    0.0,    9.7,   0.00,   0.00, 1019.6,   74.1, -999.0
05-07-2022, 00:32:14,    272,    0.0,    9.7,   0.00,   0.00, 1019.6,   74.0, -999.0
05-07-2022, 00:32:24,    273,    0.0,    9.6,   0.00,   0.00, 1019.7,   74.1, -999.0
05-07-2022, 00:32:34,    273,    0.0,    9.7,   0.00,   0.00, 1019.6,   74.0, -999.0
05-07-2022, 00:32:44,    273,    0.0,    9.7,   0.00,   0.00, 1019.6,   74.1, -999.0
05-07-2022, 00:32:54,    273,    0.0,    9.7,   0.00,   0.00, 1019.6,   74.1, -999.0
05-07-2022, 00:33:04,    273,    0.0,    9.6,   0.00,   0.00, 1019.6,   74.1, -999.0
05-07-2022, 00:33:14,    273,    0.0,    9.7,   0.00,   0.00, 1019.6,   74.1, -999.0
05-07-2022, 00:33:24,    272,    0.0,    9.7,   0.00,   0.00, 1019.7,   74.1, -999.0
05-07-2022, 00:33:34,    273,    0.0,    9.7,   0.00,   0.00, 1019.6,   74.3, -999.0
05-07-2022, 00:33:44,    273,    0.0,    9.7,   0.00,   0.00, 1019.6,   74.2, -999.0
05-07-2022, 00:33:54,    272,    0.0,    9.7,   0.00,   0.00, 1019.6,   74.3, -999.0
05-07-2022, 00:34:03,    273,    0.0,    9.7,   0.00,   0.00, 1019.6,   74.3, -999.0
05-07-2022, 00:34:14,    273,    0.0,    9.6,   0.00,   0.00, 1019.6,   74.3, -999.0
05-07-2022, 00:34:24,    276,    0.0,    9.5,   0.00,   0.00, 1019.6,   74.2, -999.0
05-07-2022, 00:34:33,    273,    0.0,    9.6,   0.00,   0.00, 1019.6,   74.3, -999.0
05-07-2022, 00:34:44,    273,    0.0,    9.6,   0.00,   0.00, 1019.6,   74.3, -999.0
05-07-2022, 00:34:54,    273,    0.0,    9.6,   0.00,   0.00, 1019.6,   74.5, -999.0
05-07-2022, 00:35:03,    272,    0.0,    9.7,   0.00,   0.00, 1019.6,   74.4, -999.0
05-07-2022, 00:35:13,    272,    0.0,    9.7,   0.00,   0.00, 1019.6,   74.3, -999.0
05-07-2022, 00:35:23,    272,    0.0,    9.6,   0.00,   0.00, 1019.6,   74.4, -999.0
05-07-2022, 00:35:33,    273,    0.0,    9.7,   0.00,   0.00, 1019.6,   74.5, -999.0
05-07-2022, 00:35:43,    273,    0.0,    9.7,   0.00,   0.00, 1019.6,   74.4, -999.0
05-07-2022, 00:35:53,    272,    0.0,    9.7,   0.00,   0.00, 1019.6,   74.5, -999.0
05-07-2022, 00:36:03,    273,    0.0,    9.6,   0.00,   0.00, 1019.6,   74.4, -999.0
05-07-2022, 00:36:13,    273,    0.0,    9.6,   0.00,   0.00, 1019.6,   74.4, -999.0
05-07-2022, 00:36:23,    272,    0.0,    9.7,   0.00,   0.00, 1019.6,   74.4, -999.0
05-07-2022, 00:36:33,    273,    0.0,    9.7,   0.00,   0.00, 1019.6,   74.6, -999.0
05-07-2022, 00:36:43,    272,    0.0,    9.7,   0.00,   0.00, 1019.6,   74.5, -999.0
05-07-2022, 00:36:53,    273,    0.0,    9.7,   0.00,   0.00, 1019.7,   74.6, -999.0
05-07-2022, 00:37:03,    272,    0.0,    9.7,   0.00,   0.00, 1019.7,   74.6, -999.0
05-07-2022, 00:37:13,    273,    0.0,    9.7,   0.00,   0.00, 1019.6,   74.6, -999.0
05-07-2022, 00:37:23,    273,    0.0,    9.7,   0.00,   0.00, 1019.6,   74.6, -999.0
05-07-2022, 00:37:33,    272,    0.0,    9.7,   0.00,   0.00, 1019.6,   74.5, -999.0
05-07-2022, 00:37:42,    273,    0.0,    9.7,   0.00,   0.00, 1019.6,   74.5, -999.0
05-07-2022, 00:37:53,    273,    0.0,    9.6,   0.00,   0.00, 1019.6,   74.6, -999.0
05-07-2022, 00:38:03,    272,    0.0,    9.6,   0.00,   0.00, 1019.6,   74.5, -999.0
05-07-2022, 00:38:12,    273,    0.0,    9.6,   0.00,   0.00, 1019.6,   74.5, -999.0
05-07-2022, 00:38:22,    273,    0.0,    9.6,   0.00,   0.00, 1019.6,   74.5, -999.0
05-07-2022, 00:38:32,    273,    0.0,    9.6,   0.00,   0.00, 1019.6,   74.5, -999.0
05-07-2022, 00:38:42,    273,    0.0,    9.6,   0.00,   0.00, 1019.6,   74.5, -999.0
05-07-2022, 00:38:54,    272,    0.0,    9.6,   0.00,   0.00, 1019.6,   74.5, -999.0
05-07-2022, 00:39:02,    273,    0.0,    9.6,   0.00,   0.00, 1019.6,   74.5, -999.0
05-07-2022, 00:39:12,    273,    0.0,    9.5,   0.00,   0.00, 1019.6,   74.6, -999.0
05-07-2022, 00:39:22,    272,    0.0,    9.5,   0.00,   0.00, 1019.6,   74.6, -999.0
05-07-2022, 00:39:32,    273,    0.0,    9.5,   0.00,   0.00, 1019.6,   74.6, -999.0
05-07-2022, 00:39:42,    273,    0.0,    9.6,   0.00,   0.00, 1019.6,   74.7, -999.0
05-07-2022, 00:39:52,    273,    0.0,    9.6,   0.00,   0.00, 1019.6,   74.6, -999.0
05-07-2022, 00:40:02,    272,    0.0,    9.6,   0.00,   0.00, 1019.6,   74.6, -999.0
05-07-2022, 00:40:12,    272,    0.0,    9.6,   0.00,   0.00, 1019.6,   74.6, -999.0
05-07-2022, 00:40:22,    273,    0.0,    9.6,   0.00,   0.00, 1019.6,   74.7, -999.0
05-07-2022, 00:40:32,    272,    0.0,    9.6,   0.00,   0.00, 1019.6,   74.6, -999.0
05-07-2022, 00:40:42,    272,    0.0,    9.6,   0.00,   0.00, 1019.6,   74.7, -999.0
05-07-2022, 00:40:51,    272,    0.0,    9.5,   0.00,   0.00, 1019.6,   74.8, -999.0
05-07-2022, 00:41:02,    273,    0.0,    9.5,   0.00,   0.00, 1019.6,   74.7, -999.0
05-07-2022, 00:41:11,    273,    0.0,    9.5,   0.00,   0.00, 1019.6,   74.7, -999.0
05-07-2022, 00:41:21,    272,    0.0,    9.6,   0.00,   0.00, 1019.6,   74.8, -999.0
05-07-2022, 00:41:32,    273,    0.0,    9.6,   0.00,   0.00, 1019.6,   74.7, -999.0
05-07-2022, 00:41:41,    272,    0.0,    9.6,   0.00,   0.00, 1019.6,   74.8, -999.0
05-07-2022, 00:41:51,    273,    0.0,    9.6,   0.00,   0.00, 1019.6,   74.8, -999.0
05-07-2022, 00:42:01,    273,    0.0,    9.6,   0.00,   0.00, 1019.7,   74.8, -999.0
05-07-2022, 00:42:11,    272,    0.0,    9.6,   0.00,   0.00, 1019.7,   74.8, -999.0
05-07-2022, 00:42:21,    273,    0.0,    9.5,   0.00,   0.00, 1019.6,   74.7, -999.0
05-07-2022, 00:42:31,    273,    0.0,    9.5,   0.00,   0.00, 1019.6,   74.6, -999.0
05-07-2022, 00:42:41,    273,    0.0,    9.6,   0.00,   0.00, 1019.6,   74.7, -999.0
05-07-2022, 00:42:51,    272,    0.0,    9.5,   0.00,   0.00, 1019.6,   74.6, -999.0
05-07-2022, 00:43:01,    273,    0.0,    9.4,   0.00,   0.00, 1019.6,   74.7, -999.0
05-07-2022, 00:43:11,    273,    0.0,    9.6,   0.00,   0.00, 1019.7,   74.8, -999.0
05-07-2022, 00:43:21,    272,    0.0,    9.5,   0.00,   0.00, 1019.6,   74.8, -999.0
05-07-2022, 00:43:31,    273,    0.0,    9.6,   0.00,   0.00, 1019.6,   74.9, -999.0
05-07-2022, 00:43:41,    270,    0.0,    9.6,   0.00,   0.00, 1019.6,   74.9, -999.0
05-07-2022, 00:43:51,    272,    0.0,    9.6,   0.00,   0.00, 1019.6,   74.9, -999.0
05-07-2022, 00:44:01,    273,    0.0,    9.5,   0.00,   0.00, 1019.6,   74.9, -999.0
05-07-2022, 00:44:13,    273,    0.0,    9.5,   0.00,   0.00, 1019.6,   74.8, -999.0
05-07-2022, 00:44:20,    273,    0.0,    9.6,   0.00,   0.00, 1019.6,   74.8, -999.0
05-07-2022, 00:44:30,    273,    0.0,    9.6,   0.00,   0.00, 1019.6,   74.9, -999.0
05-07-2022, 00:44:41,    273,    0.0,    9.6,   0.00,   0.00, 1019.6,   74.8, -999.0
05-07-2022, 00:44:50,    273,    0.0,    9.6,   0.00,   0.00, 1019.6,   74.9, -999.0
05-07-2022, 00:45:00,    273,    0.0,    9.5,   0.00,   0.00, 1019.6,   74.9, -999.0
05-07-2022, 00:45:10,    273,    0.0,    9.6,   0.00,   0.00, 1019.6,   74.8, -999.0
05-07-2022, 00:45:20,    273,    0.0,    9.6,   0.00,   0.00, 1019.6,   75.0, -999.0
05-07-2022, 00:45:30,    273,    0.0,    9.6,   0.00,   0.00, 1019.6,   74.9, -999.0
05-07-2022, 00:45:40,    273,    0.0,    9.6,   0.00,   0.00, 1019.6,   74.9, -999.0
05-07-2022, 00:45:50,    272,    0.0,    9.6,   0.00,   0.00, 1019.6,   74.9, -999.0
05-07-2022, 00:46:00,    273,    0.0,    9.5,   0.00,   0.00, 1019.6,   74.8, -999.0
05-07-2022, 00:46:10,    273,    0.0,    9.6,   0.00,   0.00, 1019.6,   74.8, -999.0
05-07-2022, 00:46:20,    273,    0.0,    9.7,   0.00,   0.00, 1019.6,   74.8, -999.0
05-07-2022, 00:46:30,    273,    0.0,    9.6,   0.00,   0.00, 1019.6,   74.8, -999.0
05-07-2022, 00:46:40,    272,    0.0,    9.6,   0.00,   0.00, 1019.6,   74.7, -999.0